AAL123 KDFW-PHOG

Flight info

Callsign AAL123
Flight time N/A
Altitude 28000
Route KATZZ2 BRHMA CNX HIPPI ONLYY SALYY DAISY DINTY R576 DENNS LNDHY1
Aircraft B789/H-SDE1E2E3FGHIJ2J3J4J5M1RWXY/LB1D1

Departure

Time N/A
Airport Dallas Fort Worth International Airport (KDFW)

Arrival

Time 2026-04-17 00:25
Airport Kahului International Airport (PHOG)
Time Latitude Longitude Altitude Speed Heading
2026-04-16 18:25 34.55954 -111.38744 37990 ft 443 kts 266°
2026-04-16 18:25 34.56030 -111.46226 37966 ft 444 kts 265°
2026-04-16 18:26 34.56101 -111.53700 37964 ft 443 kts 265°
2026-04-16 18:26 34.56167 -111.61186 37980 ft 443 kts 265°
2026-04-16 18:27 34.56229 -111.68668 37986 ft 443 kts 265°
2026-04-16 18:27 34.56287 -111.76146 38009 ft 444 kts 265°
2026-04-16 18:28 34.56340 -111.83650 37998 ft 444 kts 265°
2026-04-16 18:28 34.56388 -111.91115 37984 ft 442 kts 265°
2026-04-16 18:29 34.56431 -111.98573 37962 ft 442 kts 265°
2026-04-16 18:29 34.56470 -112.06037 37976 ft 442 kts 265°
2026-04-16 18:30 34.56504 -112.13504 38024 ft 443 kts 265°
2026-04-16 18:30 34.56535 -112.20961 38040 ft 441 kts 265°
2026-04-16 18:31 34.56559 -112.28390 38076 ft 440 kts 265°
2026-04-16 18:31 34.56580 -112.35759 38088 ft 440 kts 265°
2026-04-16 18:32 34.56596 -112.43185 38104 ft 441 kts 265°
2026-04-16 18:32 34.56608 -112.50637 37950 ft 442 kts 265°
2026-04-16 18:33 34.56614 -112.56832 37937 ft 442 kts 265°
2026-04-16 18:33 34.56618 -112.64288 37954 ft 442 kts 265°
2026-04-16 18:34 34.56618 -112.71732 37936 ft 439 kts 265°
2026-04-16 18:34 34.56611 -112.79115 37926 ft 437 kts 265°
2026-04-16 18:35 34.56600 -112.86524 37932 ft 441 kts 265°
2026-04-16 18:35 34.56587 -112.93970 37931 ft 442 kts 265°
2026-04-16 18:36 34.56568 -113.01418 37926 ft 441 kts 265°
2026-04-16 18:36 34.56544 -113.08850 37936 ft 440 kts 265°
2026-04-16 18:37 34.56517 -113.16289 37935 ft 441 kts 265°
2026-04-16 18:37 34.56483 -113.23723 37914 ft 440 kts 265°
2026-04-16 18:38 34.56447 -113.31151 37925 ft 441 kts 265°
2026-04-16 18:38 34.56405 -113.38587 37919 ft 440 kts 265°
2026-04-16 18:39 34.56359 -113.46017 37911 ft 441 kts 265°
2026-04-16 18:39 34.56309 -113.53425 37894 ft 442 kts 265°
2026-04-16 18:40 34.56253 -113.60932 37905 ft 442 kts 265°
2026-04-16 18:40 34.55892 -113.68281 37896 ft 439 kts 261°
2026-04-16 18:41 34.55356 -113.75666 37914 ft 439 kts 261°
2026-04-16 18:41 34.54787 -113.83064 37904 ft 441 kts 261°
2026-04-16 18:42 34.54225 -113.90470 37894 ft 441 kts 261°
2026-04-16 18:42 34.53653 -113.97890 37904 ft 441 kts 261°
2026-04-16 18:43 34.53078 -114.05300 37906 ft 441 kts 261°
2026-04-16 18:43 34.52499 -114.12704 37920 ft 442 kts 261°
2026-04-16 18:44 34.51913 -114.20138 37932 ft 443 kts 261°
2026-04-16 18:44 34.51323 -114.27568 37945 ft 443 kts 261°
2026-04-16 18:45 34.50728 -114.35001 37945 ft 443 kts 261°
2026-04-16 18:45 34.50128 -114.42433 37887 ft 444 kts 261°
2026-04-16 18:46 34.49523 -114.49889 37893 ft 445 kts 261°
2026-04-16 18:46 34.48912 -114.57349 37899 ft 445 kts 261°
2026-04-16 18:47 34.48297 -114.64801 37904 ft 445 kts 261°
2026-04-16 18:47 34.47677 -114.72258 37900 ft 444 kts 261°
2026-04-16 18:48 34.47053 -114.79706 37899 ft 444 kts 261°
2026-04-16 18:48 34.46424 -114.87151 37892 ft 444 kts 261°
2026-04-16 18:49 34.45793 -114.94585 37894 ft 443 kts 261°
2026-04-16 18:49 34.45581 -115.02020 37896 ft 445 kts 265°
2026-04-16 18:50 34.45409 -115.09545 37896 ft 448 kts 265°
2026-04-16 18:50 34.45254 -115.17104 37910 ft 449 kts 265°
2026-04-16 18:51 34.45082 -115.24653 37900 ft 447 kts 265°
2026-04-16 18:51 34.44911 -115.32177 37900 ft 446 kts 265°
2026-04-16 18:52 34.44733 -115.39699 37909 ft 448 kts 265°
2026-04-16 18:52 34.44551 -115.47264 37913 ft 450 kts 265°
2026-04-16 18:53 34.44364 -115.54832 37908 ft 449 kts 265°
2026-04-16 18:53 34.44173 -115.62382 37911 ft 448 kts 265°
2026-04-16 18:54 34.43976 -115.69930 37916 ft 449 kts 265°
2026-04-16 18:54 34.43776 -115.77495 37927 ft 450 kts 265°
2026-04-16 18:55 34.43570 -115.85069 37956 ft 449 kts 265°
2026-04-16 18:55 34.43359 -115.92633 37976 ft 449 kts 265°
2026-04-16 18:56 34.43144 -116.00196 37992 ft 451 kts 265°
2026-04-16 18:56 34.42923 -116.07803 38018 ft 452 kts 265°
2026-04-16 18:57 34.42699 -116.15364 38026 ft 452 kts 265°
2026-04-16 18:58 34.42351 -116.26778 37940 ft 452 kts 265°
2026-04-16 18:58 34.42113 -116.34398 37942 ft 454 kts 265°
2026-04-16 18:59 34.41870 -116.42034 37945 ft 453 kts 265°
2026-04-16 18:59 34.41624 -116.49654 37937 ft 453 kts 265°
2026-04-16 19:00 34.41416 -116.57271 37929 ft 452 kts 265°
2026-04-16 19:00 34.41191 -116.64863 37939 ft 451 kts 265°
2026-04-16 19:01 34.40964 -116.72466 37940 ft 451 kts 265°
2026-04-16 19:01 34.40734 -116.80049 37953 ft 451 kts 265°
2026-04-16 19:02 34.40497 -116.87646 37949 ft 451 kts 265°
2026-04-16 19:02 34.40257 -116.95233 37947 ft 452 kts 265°
2026-04-16 19:03 34.40010 -117.02850 37959 ft 452 kts 265°
2026-04-16 19:03 34.39760 -117.10451 37953 ft 452 kts 265°
2026-04-16 19:04 34.39505 -117.18046 37957 ft 451 kts 265°
2026-04-16 19:04 34.39245 -117.25656 37982 ft 453 kts 265°
2026-04-16 19:05 34.38980 -117.33271 37978 ft 453 kts 265°
2026-04-16 19:05 34.38712 -117.40820 37974 ft 453 kts 265°
2026-04-16 19:06 34.38437 -117.48454 37973 ft 453 kts 265°
2026-04-16 19:06 34.38158 -117.56070 37981 ft 454 kts 265°
2026-04-16 19:07 34.37873 -117.63710 37995 ft 454 kts 265°
2026-04-16 19:07 34.37583 -117.71356 37994 ft 454 kts 265°
2026-04-16 19:08 34.37289 -117.78983 38011 ft 453 kts 265°
2026-04-16 19:08 34.36991 -117.86594 37990 ft 451 kts 265°
2026-04-16 19:09 34.36690 -117.94152 37995 ft 448 kts 265°
2026-04-16 19:09 34.36384 -118.01718 37990 ft 451 kts 265°
2026-04-16 19:10 34.36073 -118.09297 37993 ft 452 kts 265°
2026-04-16 19:10 34.35757 -118.16905 38003 ft 453 kts 265°
2026-04-16 19:11 34.35436 -118.24466 38018 ft 452 kts 265°
2026-04-16 19:11 34.35110 -118.32111 38037 ft 453 kts 265°
2026-04-16 19:12 34.34779 -118.39682 38043 ft 454 kts 265°
2026-04-16 19:12 34.34443 -118.47312 38049 ft 454 kts 265°
2026-04-16 19:13 34.34102 -118.54939 38037 ft 453 kts 265°
2026-04-16 19:13 34.33757 -118.62535 38011 ft 452 kts 265°
2026-04-16 19:14 34.33407 -118.70137 38013 ft 453 kts 265°
2026-04-16 19:14 34.33052 -118.77771 38011 ft 455 kts 265°
2026-04-16 19:15 34.32691 -118.85412 38014 ft 454 kts 265°
2026-04-16 19:15 34.32326 -118.93024 38018 ft 453 kts 265°
2026-04-16 19:16 34.31959 -119.00595 38008 ft 450 kts 265°
2026-04-16 19:16 34.31588 -119.08161 37999 ft 451 kts 265°
2026-04-16 19:17 34.31212 -119.15726 38008 ft 451 kts 265°
2026-04-16 19:17 34.30830 -119.23299 38021 ft 451 kts 265°
2026-04-16 19:18 34.30445 -119.30860 38016 ft 451 kts 266°
2026-04-16 19:18 34.30055 -119.38431 38022 ft 451 kts 266°
2026-04-16 19:19 34.29660 -119.45988 38009 ft 450 kts 266°
2026-04-16 19:19 34.29261 -119.53548 38013 ft 450 kts 266°
2026-04-16 19:20 34.28856 -119.61117 38014 ft 452 kts 266°
2026-04-16 19:20 34.28448 -119.68668 38033 ft 453 kts 266°
2026-04-16 19:21 34.28100 -119.75040 38028 ft 453 kts 266°
2026-04-16 19:21 34.27611 -119.83878 38028 ft 453 kts 266°
2026-04-16 19:22 34.27185 -119.91499 38036 ft 455 kts 266°
2026-04-16 19:22 34.26823 -119.97898 38037 ft 456 kts 266°
2026-04-16 19:23 34.26389 -120.05510 38011 ft 452 kts 266°
2026-04-16 19:23 34.25780 -120.13047 38041 ft 451 kts 257°
2026-04-16 19:24 34.23769 -120.20279 38045 ft 456 kts 251°
2026-04-16 19:24 34.21595 -120.27427 38021 ft 456 kts 251°
2026-04-16 19:25 34.19400 -120.34594 38038 ft 455 kts 251°
2026-04-16 19:25 34.17210 -120.41749 38038 ft 454 kts 251°
2026-04-16 19:26 34.15013 -120.48894 38030 ft 453 kts 251°
2026-04-16 19:26 34.12818 -120.56027 38045 ft 453 kts 251°
2026-04-16 19:27 34.10612 -120.63167 38060 ft 454 kts 251°
2026-04-16 19:27 34.08404 -120.70307 38057 ft 454 kts 251°
2026-04-16 19:28 34.06192 -120.77438 38075 ft 454 kts 251°
2026-04-16 19:28 34.03976 -120.84567 38060 ft 455 kts 251°
2026-04-16 19:29 34.01752 -120.91700 38058 ft 455 kts 251°
2026-04-16 19:29 33.99529 -120.98817 38068 ft 455 kts 251°
2026-04-16 19:30 33.97291 -121.05969 38069 ft 457 kts 251°
2026-04-16 19:30 33.95059 -121.13079 38076 ft 456 kts 251°
2026-04-16 19:31 33.92810 -121.20227 38086 ft 456 kts 251°
2026-04-16 19:31 33.90557 -121.27371 38078 ft 456 kts 251°
2026-04-16 19:32 33.88287 -121.34549 38086 ft 459 kts 251°
2026-04-16 19:32 33.86014 -121.41725 38093 ft 458 kts 251°
2026-04-16 19:33 33.83723 -121.48942 38092 ft 457 kts 251°
2026-04-16 19:33 33.81456 -121.56061 38099 ft 460 kts 251°
2026-04-16 19:34 33.79160 -121.63254 38093 ft 460 kts 251°
2026-04-16 19:34 33.76863 -121.70439 38103 ft 460 kts 252°
2026-04-16 19:35 33.74562 -121.77613 38116 ft 461 kts 251°
2026-04-16 19:35 33.72249 -121.84812 38106 ft 463 kts 252°
2026-04-16 19:36 33.69924 -121.92030 38114 ft 464 kts 251°
2026-04-16 19:36 33.67601 -121.99228 38121 ft 463 kts 251°
2026-04-16 19:37 33.65270 -122.06428 38117 ft 463 kts 251°
2026-04-16 19:37 33.62934 -122.13635 38112 ft 464 kts 251°
2026-04-16 19:38 33.60585 -122.20856 38123 ft 465 kts 251°
2026-04-16 19:38 33.58236 -122.28066 38125 ft 465 kts 251°
2026-04-16 19:39 33.55877 -122.35285 38123 ft 465 kts 251°
2026-04-16 19:39 33.53511 -122.42515 38133 ft 468 kts 251°
2026-04-16 19:40 33.51131 -122.49767 38131 ft 468 kts 251°
2026-04-16 19:40 33.48763 -122.56972 38139 ft 467 kts 251°
2026-04-16 19:41 33.47050 -122.64475 38139 ft 465 kts 258°
2026-04-16 19:41 33.45490 -122.72017 38147 ft 466 kts 259°
2026-04-16 19:42 33.43947 -122.79510 38153 ft 466 kts 259°
2026-04-16 19:42 33.42375 -122.87087 38154 ft 466 kts 259°
2026-04-16 19:43 33.40823 -122.94571 38154 ft 468 kts 259°
2026-04-16 19:43 33.39243 -123.02141 38155 ft 469 kts 258°
2026-04-16 19:44 33.37651 -123.09754 38158 ft 468 kts 258°
2026-04-16 19:44 33.36075 -123.17260 38156 ft 468 kts 258°
2026-04-16 19:45 33.34478 -123.24848 38158 ft 472 kts 259°
2026-04-16 19:45 33.32871 -123.32451 38167 ft 472 kts 258°
2026-04-16 19:46 33.31260 -123.40058 38170 ft 472 kts 259°
2026-04-16 19:46 33.29644 -123.47659 38170 ft 471 kts 258°
2026-04-16 19:47 33.28026 -123.55246 38174 ft 471 kts 258°
2026-04-16 19:47 33.26401 -123.62838 38174 ft 471 kts 258°
2026-04-16 19:48 33.24769 -123.70434 38176 ft 472 kts 259°
2026-04-16 19:48 33.23133 -123.78038 38173 ft 474 kts 259°
2026-04-16 19:49 33.21486 -123.85657 38177 ft 474 kts 258°
2026-04-16 19:49 33.19836 -123.93277 38175 ft 474 kts 258°
2026-04-16 19:50 33.18178 -124.00899 38187 ft 475 kts 258°
2026-04-16 19:50 33.16516 -124.08523 38187 ft 475 kts 258°
2026-04-16 19:51 33.14844 -124.16157 38197 ft 475 kts 258°
2026-04-16 19:51 33.13170 -124.23788 38190 ft 475 kts 258°
2026-04-16 19:52 33.11488 -124.31427 38203 ft 477 kts 258°
2026-04-16 19:52 33.09799 -124.39076 38197 ft 477 kts 258°
2026-04-16 19:53 33.08104 -124.46725 38203 ft 477 kts 258°
2026-04-16 19:53 33.06406 -124.54361 38201 ft 477 kts 258°
2026-04-16 19:54 33.04693 -124.62020 38206 ft 479 kts 258°
2026-04-16 19:54 33.02975 -124.69686 38203 ft 478 kts 258°
2026-04-16 19:55 33.01266 -124.77285 38217 ft 478 kts 258°
2026-04-16 19:55 32.99543 -124.84924 38221 ft 478 kts 258°
2026-04-16 19:56 32.97811 -124.92577 38222 ft 478 kts 258°
2026-04-16 19:56 32.96074 -125.00232 38200 ft 479 kts 258°
2026-04-16 19:57 32.94333 -125.07880 38227 ft 479 kts 258°
2026-04-16 19:57 32.92581 -125.15550 38234 ft 480 kts 258°
2026-04-16 19:58 32.90824 -125.23219 38227 ft 478 kts 258°
2026-04-16 19:58 32.89075 -125.30834 38222 ft 476 kts 258°
2026-04-16 19:59 32.87322 -125.38439 38222 ft 477 kts 258°
2026-04-16 19:59 32.85562 -125.46055 38225 ft 478 kts 258°
2026-04-16 20:00 32.82920 -125.57438 38236 ft 478 kts 258°
2026-04-16 20:00 32.81150 -125.65041 38236 ft 478 kts 258°
2026-04-16 20:01 32.79372 -125.72649 38240 ft 477 kts 258°
2026-04-16 20:01 32.77594 -125.80238 38230 ft 476 kts 258°
2026-04-16 20:02 32.75816 -125.87806 38232 ft 475 kts 258°
2026-04-16 20:02 32.74035 -125.95362 38229 ft 475 kts 258°
2026-04-16 20:03 32.72246 -126.02929 38233 ft 476 kts 258°
2026-04-16 20:03 32.70451 -126.10503 38240 ft 477 kts 258°
2026-04-16 20:04 32.68648 -126.18084 38243 ft 477 kts 258°
2026-04-16 20:04 32.66840 -126.25667 38225 ft 477 kts 258°
2026-04-16 20:05 32.65032 -126.33225 38243 ft 476 kts 258°
2026-04-16 20:05 32.63221 -126.40778 38247 ft 476 kts 258°
2026-04-16 20:06 32.61406 -126.48323 38249 ft 475 kts 258°
2026-04-16 20:06 32.59602 -126.55795 38248 ft 473 kts 258°
2026-04-16 20:07 32.57790 -126.63291 38244 ft 472 kts 258°
2026-04-16 20:07 32.55973 -126.70776 38241 ft 472 kts 258°
2026-04-16 20:08 32.54155 -126.78250 38249 ft 472 kts 258°
2026-04-16 20:08 32.52332 -126.85720 38249 ft 472 kts 258°
2026-04-16 20:09 32.50505 -126.93187 38248 ft 472 kts 258°
2026-04-16 20:09 32.48674 -127.00647 38248 ft 472 kts 258°
2026-04-16 20:10 32.47148 -127.06849 38253 ft 471 kts 258°
2026-04-16 20:10 32.45312 -127.14294 38254 ft 471 kts 258°
2026-04-16 20:11 32.43475 -127.21721 38255 ft 471 kts 258°
2026-04-16 20:11 32.41629 -127.29163 38268 ft 471 kts 258°
2026-04-16 20:12 32.39782 -127.36588 38268 ft 471 kts 258°
2026-04-16 20:12 32.37930 -127.44013 38262 ft 470 kts 258°
2026-04-16 20:13 32.36075 -127.51429 38262 ft 469 kts 258°
2026-04-16 20:13 32.34219 -127.58834 38257 ft 470 kts 258°
2026-04-16 20:14 32.32356 -127.66243 38270 ft 471 kts 258°
2026-04-16 20:14 32.30483 -127.73669 38262 ft 471 kts 258°
2026-04-16 20:15 32.28610 -127.81074 38260 ft 470 kts 258°
2026-04-16 20:15 32.26736 -127.88467 38273 ft 469 kts 258°
2026-04-16 20:16 32.24856 -127.95861 38252 ft 470 kts 258°
2026-04-16 20:16 32.22975 -128.03240 38270 ft 468 kts 258°
2026-04-16 20:17 32.21097 -128.10591 38270 ft 467 kts 258°
2026-04-16 20:17 32.19215 -128.17933 38266 ft 467 kts 258°
2026-04-16 20:18 32.17329 -128.25274 38276 ft 467 kts 258°
2026-04-16 20:18 32.15435 -128.32623 38278 ft 468 kts 258°
2026-04-16 20:19 32.13535 -128.39977 38297 ft 469 kts 258°
2026-04-16 20:19 32.11625 -128.47350 38291 ft 470 kts 258°
2026-04-16 20:20 32.09710 -128.54725 38284 ft 469 kts 258°
2026-04-16 20:20 32.07797 -128.62068 38282 ft 468 kts 258°
2026-04-16 20:21 32.05884 -128.69398 38281 ft 467 kts 258°
2026-04-16 20:21 32.03970 -128.76709 38292 ft 467 kts 258°
2026-04-16 20:22 32.02054 -128.84011 38287 ft 467 kts 258°
2026-04-16 20:22 32.00131 -128.91318 38286 ft 466 kts 258°
2026-04-16 20:23 31.98208 -128.98606 38284 ft 465 kts 258°
2026-04-16 20:23 31.96288 -129.05868 38282 ft 465 kts 258°
2026-04-16 20:24 31.94356 -129.13153 38276 ft 466 kts 258°
2026-04-16 20:24 31.92418 -129.20439 38294 ft 466 kts 258°
2026-04-16 20:25 31.90479 -129.27715 38292 ft 466 kts 258°
2026-04-16 20:25 31.88533 -129.34998 38298 ft 466 kts 258°
2026-04-16 20:26 31.86584 -129.42271 38290 ft 465 kts 259°
2026-04-16 20:26 31.84637 -129.49521 38297 ft 465 kts 259°
2026-04-16 20:27 31.82685 -129.56769 38295 ft 465 kts 259°
2026-04-16 20:27 31.80732 -129.64006 38295 ft 464 kts 259°
2026-04-16 20:28 31.78773 -129.71245 38298 ft 466 kts 259°
2026-04-16 20:28 31.76800 -129.78517 38307 ft 467 kts 259°
2026-04-16 20:29 31.74836 -129.85735 38311 ft 467 kts 259°
2026-04-16 20:29 31.72844 -129.93039 38309 ft 466 kts 259°
2026-04-16 20:30 31.70876 -130.00241 38308 ft 466 kts 259°
2026-04-16 20:30 31.68891 -130.07483 38314 ft 465 kts 258°
2026-04-16 20:31 31.66907 -130.14707 38315 ft 465 kts 258°
2026-04-16 20:31 31.64917 -130.21931 38312 ft 465 kts 258°
2026-04-16 20:32 31.62924 -130.29146 38304 ft 464 kts 259°
2026-04-16 20:32 31.60931 -130.36352 38306 ft 465 kts 258°
2026-04-16 20:33 31.58927 -130.43575 38301 ft 466 kts 258°
2026-04-16 20:33 31.56917 -130.50800 38316 ft 466 kts 259°
2026-04-16 20:34 31.54905 -130.58019 38312 ft 467 kts 259°
2026-04-16 20:34 31.52881 -130.65257 38318 ft 467 kts 258°
2026-04-16 20:35 31.50851 -130.72505 38318 ft 468 kts 258°
2026-04-16 20:35 31.48817 -130.79743 38317 ft 467 kts 258°
2026-04-16 20:36 31.46788 -130.86953 38311 ft 466 kts 258°
2026-04-16 20:36 31.44756 -130.94151 38313 ft 465 kts 259°
2026-04-16 20:37 31.42720 -131.01351 38310 ft 466 kts 259°
2026-04-16 20:37 31.40686 -131.08519 38314 ft 468 kts 258°
2026-04-16 20:38 31.38632 -131.15744 38303 ft 468 kts 259°
2026-04-16 20:38 31.36576 -131.22960 38304 ft 467 kts 259°
2026-04-16 20:39 31.34520 -131.30158 38300 ft 466 kts 258°
2026-04-16 20:39 31.32464 -131.37338 38315 ft 464 kts 259°
2026-04-16 20:40 31.30405 -131.44517 38310 ft 466 kts 259°
2026-04-16 20:40 31.28337 -131.51699 38311 ft 467 kts 258°
2026-04-16 20:41 31.26263 -131.58892 38315 ft 466 kts 259°
2026-04-16 20:41 31.24189 -131.66065 38311 ft 466 kts 259°
2026-04-16 20:42 31.22116 -131.73222 38311 ft 465 kts 258°
2026-04-16 20:42 31.20037 -131.80379 38315 ft 464 kts 258°
2026-04-16 20:43 31.17959 -131.87521 38309 ft 464 kts 258°
2026-04-16 20:43 31.15880 -131.94645 38309 ft 464 kts 258°
2026-04-16 20:44 31.13795 -132.01773 38315 ft 463 kts 258°
2026-04-16 20:44 31.11704 -132.08909 38306 ft 465 kts 258°
2026-04-16 20:45 31.09606 -132.16045 38317 ft 465 kts 258°
2026-04-16 20:45 31.07502 -132.23182 38311 ft 465 kts 258°
2026-04-16 20:46 31.05397 -132.30309 38308 ft 464 kts 258°
2026-04-16 20:46 31.03293 -132.37415 38297 ft 464 kts 258°
2026-04-16 20:47 31.01186 -132.44517 38303 ft 463 kts 257°
2026-04-16 20:47 30.99074 -132.51618 38311 ft 464 kts 257°
2026-04-16 20:48 30.96967 -132.58685 38309 ft 465 kts 257°
2026-04-16 20:48 30.94826 -132.65847 38309 ft 464 kts 257°
2026-04-16 20:49 30.92720 -132.72878 38304 ft 462 kts 257°
2026-04-16 20:49 30.90604 -132.79930 38299 ft 461 kts 257°
2026-04-16 20:50 30.88466 -132.87037 38311 ft 463 kts 257°
2026-04-16 20:50 30.86347 -132.94065 38312 ft 464 kts 257°
2026-04-16 20:51 30.84204 -133.01157 38316 ft 465 kts 257°
2026-04-16 20:51 30.82060 -133.08230 38304 ft 462 kts 257°
2026-04-16 20:52 30.79929 -133.15256 38303 ft 461 kts 257°
2026-04-16 20:52 30.77793 -133.22275 38305 ft 460 kts 257°
2026-04-16 20:53 30.75663 -133.29259 38308 ft 458 kts 256°
2026-04-16 20:53 30.73534 -133.36232 38301 ft 458 kts 256°
2026-04-16 20:54 30.71398 -133.43203 38288 ft 458 kts 256°
2026-04-16 20:54 30.69268 -133.50144 38312 ft 456 kts 256°
2026-04-16 20:55 30.67495 -133.55912 38320 ft 456 kts 256°
2026-04-16 20:55 30.65359 -133.62842 38319 ft 456 kts 256°
2026-04-16 20:56 30.63226 -133.69749 38307 ft 454 kts 256°
2026-04-16 20:56 30.61091 -133.76650 38304 ft 454 kts 256°
2026-04-16 20:57 30.58951 -133.83550 38289 ft 454 kts 256°
2026-04-16 20:57 30.56815 -133.90421 38307 ft 452 kts 256°
2026-04-16 20:58 30.54677 -133.97289 38320 ft 452 kts 256°
2026-04-16 20:58 30.52533 -134.04161 38304 ft 453 kts 255°
2026-04-16 20:59 30.50386 -134.11019 38302 ft 452 kts 255°
2026-04-16 20:59 30.48244 -134.17858 38299 ft 450 kts 255°
2026-04-16 21:00 30.46101 -134.24679 38314 ft 450 kts 255°
2026-04-16 21:00 30.43958 -134.31485 38310 ft 449 kts 255°
2026-04-16 21:01 30.41817 -134.38277 38312 ft 449 kts 255°
2026-04-16 21:01 30.39680 -134.45037 38304 ft 450 kts 255°
2026-04-16 21:02 30.37532 -134.51818 38305 ft 448 kts 255°
2026-04-16 21:03 30.34308 -134.61973 38290 ft 447 kts 254°
2026-04-16 21:03 30.32161 -134.68717 38304 ft 446 kts 254°
2026-04-16 21:04 30.30014 -134.75450 38301 ft 446 kts 254°
2026-04-16 21:04 30.27860 -134.82186 38302 ft 446 kts 254°
2026-04-16 21:05 30.25705 -134.88915 38305 ft 446 kts 254°
2026-04-16 21:05 30.23543 -134.95650 38306 ft 447 kts 254°
2026-04-16 21:06 30.21378 -135.02383 38306 ft 446 kts 254°
2026-04-16 21:06 30.19219 -135.09081 38303 ft 445 kts 254°
2026-04-16 21:07 30.17057 -135.15776 38280 ft 444 kts 254°
2026-04-16 21:07 30.14898 -135.22449 38302 ft 443 kts 254°
2026-04-16 21:08 30.12744 -135.29095 38303 ft 441 kts 254°
2026-04-16 21:08 30.10587 -135.35733 38300 ft 442 kts 254°
2026-04-16 21:09 30.08422 -135.42385 38280 ft 442 kts 254°
2026-04-16 21:09 30.06274 -135.48969 38302 ft 441 kts 254°
2026-04-16 21:10 30.04114 -135.55582 38292 ft 440 kts 254°
2026-04-16 21:10 30.01949 -135.62191 38298 ft 439 kts 254°
2026-04-16 21:11 29.99789 -135.68776 38300 ft 438 kts 254°
2026-04-16 21:11 29.97629 -135.75349 38295 ft 439 kts 254°
2026-04-16 21:12 29.95458 -135.81940 38292 ft 439 kts 254°
2026-04-16 21:12 29.93292 -135.88504 38297 ft 437 kts 254°
2026-04-16 21:13 29.91129 -135.95048 38290 ft 437 kts 254°
2026-04-16 21:13 29.88965 -136.01578 38297 ft 435 kts 255°
2026-04-16 21:14 29.86803 -136.08094 38292 ft 435 kts 255°
2026-04-16 21:14 29.84638 -136.14605 38292 ft 435 kts 255°
2026-04-16 21:15 29.82474 -136.21099 38284 ft 433 kts 255°
2026-04-16 21:15 29.80315 -136.27566 38296 ft 432 kts 255°
2026-04-16 21:16 29.78158 -136.34016 38299 ft 431 kts 255°
2026-04-16 21:16 29.76005 -136.40442 38297 ft 430 kts 255°
2026-04-16 21:17 29.73854 -136.46851 38291 ft 429 kts 255°
2026-04-16 21:17 29.71697 -136.53264 38280 ft 430 kts 256°
2026-04-16 21:18 29.69543 -136.59656 38299 ft 428 kts 256°
2026-04-16 21:18 29.67395 -136.66019 38297 ft 426 kts 256°
2026-04-16 21:19 29.65244 -136.72381 38297 ft 427 kts 255°
2026-04-16 21:19 29.63102 -136.78703 38299 ft 427 kts 255°
2026-04-16 21:20 29.60942 -136.85067 38290 ft 427 kts 256°
2026-04-16 21:20 29.58785 -136.91411 38289 ft 426 kts 256°
2026-04-16 21:21 29.56624 -136.97752 38288 ft 426 kts 255°
2026-04-16 21:21 29.54469 -137.04065 38287 ft 424 kts 256°
2026-04-16 21:22 29.52315 -137.10368 38283 ft 424 kts 256°
2026-04-16 21:22 29.50156 -137.16669 38287 ft 423 kts 256°
2026-04-16 21:23 29.48003 -137.22945 38281 ft 421 kts 255°
2026-04-16 21:23 29.45856 -137.29193 38283 ft 422 kts 255°
2026-04-16 21:24 29.43696 -137.35466 38284 ft 423 kts 255°
2026-04-16 21:24 29.41529 -137.41747 38287 ft 423 kts 255°
2026-04-16 21:25 29.39364 -137.48010 38283 ft 421 kts 255°
2026-04-16 21:25 29.37206 -137.54245 38280 ft 420 kts 255°
2026-04-16 21:26 29.35050 -137.60462 38279 ft 420 kts 255°
2026-04-16 21:26 29.32891 -137.66673 38279 ft 418 kts 255°
2026-04-16 21:27 29.30752 -137.72823 38282 ft 419 kts 255°
2026-04-16 21:27 29.28583 -137.79044 38284 ft 421 kts 255°
2026-04-16 21:28 29.26409 -137.85265 38291 ft 419 kts 255°
2026-04-16 21:28 29.24244 -137.91454 38287 ft 418 kts 255°
2026-04-16 21:29 29.22079 -137.97630 38276 ft 417 kts 255°
2026-04-16 21:29 29.19915 -138.03797 38280 ft 417 kts 255°
2026-04-16 21:30 29.17754 -138.09939 38278 ft 416 kts 255°
2026-04-16 21:30 29.15594 -138.16072 38272 ft 416 kts 255°
2026-04-16 21:31 29.13426 -138.22217 38271 ft 417 kts 255°
2026-04-16 21:31 29.11252 -138.28360 38282 ft 415 kts 255°
2026-04-16 21:32 29.09090 -138.34472 38280 ft 415 kts 255°
2026-04-16 21:32 29.06922 -138.40581 38272 ft 414 kts 255°
2026-04-16 21:33 29.04754 -138.46685 38283 ft 414 kts 255°
2026-04-16 21:33 29.02590 -138.52762 38279 ft 412 kts 255°
2026-04-16 21:34 29.00441 -138.58793 38272 ft 413 kts 255°
2026-04-16 21:34 28.98268 -138.64877 38277 ft 415 kts 255°
2026-04-16 21:35 28.96093 -138.70953 38281 ft 411 kts 255°
2026-04-16 21:35 28.93932 -138.76989 38274 ft 410 kts 255°
2026-04-16 21:36 28.91768 -138.83019 38279 ft 410 kts 255°
2026-04-16 21:36 28.89602 -138.89046 38268 ft 410 kts 255°
2026-04-16 21:37 28.87437 -138.95055 38270 ft 409 kts 255°
2026-04-16 21:37 28.85271 -139.01061 38269 ft 409 kts 255°
2026-04-16 21:38 28.83103 -139.07060 38264 ft 409 kts 255°
2026-04-16 21:38 28.80939 -139.13042 38273 ft 408 kts 254°
2026-04-16 21:39 28.78772 -139.19020 38265 ft 408 kts 255°
2026-04-16 21:39 28.76596 -139.25016 38267 ft 410 kts 255°
2026-04-16 21:40 28.74409 -139.31029 38277 ft 411 kts 254°
2026-04-16 21:40 28.72226 -139.37018 38268 ft 407 kts 254°
2026-04-16 21:41 28.70056 -139.42971 38267 ft 406 kts 254°
2026-04-16 21:41 28.67877 -139.48912 38262 ft 406 kts 254°
2026-04-16 21:42 28.65697 -139.54854 38265 ft 407 kts 254°
2026-04-16 21:42 28.63512 -139.60791 38263 ft 406 kts 254°
2026-04-16 21:43 28.61349 -139.66666 38264 ft 405 kts 254°
2026-04-16 21:43 28.59237 -139.72392 38258 ft 405 kts 254°
2026-04-16 21:44 28.57424 -139.77300 38268 ft 405 kts 254°
2026-04-16 21:44 28.55246 -139.83185 38259 ft 404 kts 254°
2026-04-16 21:45 28.53063 -139.89080 38255 ft 404 kts 254°
2026-04-16 21:45 28.50875 -139.94973 38257 ft 405 kts 254°
2026-04-16 21:46 28.48681 -140.00872 38794 ft 402 kts 254°
2026-04-16 21:46 28.47596 -140.03784 39221 ft 399 kts 254°
2026-04-16 21:46 28.46516 -140.06689 39423 ft 401 kts 254°
2026-04-16 21:46 28.45428 -140.09615 39620 ft 403 kts 253°
2026-04-16 21:47 28.44332 -140.12552 39814 ft 404 kts 253°
2026-04-16 21:47 28.43230 -140.15499 40032 ft 406 kts 253°
2026-04-16 21:47 28.42126 -140.18455 40243 ft 407 kts 253°
2026-04-16 21:48 28.39893 -140.24427 40243 ft 410 kts 253°
2026-04-16 21:48 28.37674 -140.30342 40242 ft 406 kts 253°
2026-04-16 21:49 28.35467 -140.36231 40241 ft 405 kts 253°
2026-04-16 21:49 28.33254 -140.42118 40258 ft 406 kts 253°
2026-04-16 21:50 28.31038 -140.48006 40257 ft 406 kts 253°
2026-04-16 21:50 28.28830 -140.53864 40253 ft 406 kts 253°
2026-04-16 21:51 28.26593 -140.59788 40248 ft 406 kts 252°
2026-04-16 21:51 28.24383 -140.65631 40258 ft 406 kts 252°
2026-04-16 21:52 28.22158 -140.71507 40259 ft 405 kts 252°
2026-04-16 21:52 28.19929 -140.77387 40235 ft 407 kts 252°
2026-04-16 21:53 28.17688 -140.83282 40246 ft 408 kts 252°
2026-04-16 21:53 28.15442 -140.89187 40248 ft 408 kts 252°
2026-04-16 21:54 28.13196 -140.95077 40243 ft 406 kts 252°
2026-04-16 21:54 28.10958 -141.00942 40237 ft 405 kts 252°
2026-04-16 21:55 28.08720 -141.06798 40237 ft 406 kts 252°
2026-04-16 21:55 28.06465 -141.12690 40238 ft 409 kts 252°
2026-04-16 21:56 28.04199 -141.18598 40241 ft 409 kts 252°
2026-04-16 21:56 28.01932 -141.24501 40244 ft 409 kts 252°
2026-04-16 21:57 27.99657 -141.30416 40244 ft 409 kts 252°
2026-04-16 21:57 27.97386 -141.36312 40232 ft 408 kts 252°
2026-04-16 21:58 27.95113 -141.42202 40233 ft 409 kts 252°
2026-04-16 21:58 27.92852 -141.48055 40233 ft 409 kts 252°
2026-04-16 21:59 27.90570 -141.53952 40231 ft 409 kts 252°
2026-04-16 21:59 27.88285 -141.59850 40230 ft 409 kts 251°
2026-04-16 22:00 27.86002 -141.65730 40228 ft 408 kts 251°
2026-04-16 22:00 27.83729 -141.71579 40226 ft 406 kts 251°
2026-04-16 22:01 27.81455 -141.77421 40226 ft 407 kts 251°
2026-04-16 22:01 27.79172 -141.83277 40234 ft 407 kts 251°
2026-04-16 22:02 27.76891 -141.89116 40235 ft 406 kts 251°
2026-04-16 22:02 27.74612 -141.94946 40234 ft 405 kts 251°
2026-04-16 22:03 27.72334 -142.00761 40224 ft 405 kts 251°
2026-04-16 22:03 27.70052 -142.06583 40235 ft 407 kts 251°
2026-04-16 22:04 27.67757 -142.12421 40229 ft 408 kts 251°
2026-04-16 22:04 27.65457 -142.18269 40234 ft 408 kts 251°
2026-04-16 22:05 27.63154 -142.24114 40234 ft 408 kts 251°
2026-04-16 22:05 27.60850 -142.29955 40232 ft 407 kts 251°
2026-04-16 22:06 27.58549 -142.35777 40214 ft 406 kts 251°
2026-04-16 22:06 27.55091 -142.44513 40222 ft 407 kts 251°
2026-04-16 22:07 27.52794 -142.50305 40220 ft 408 kts 251°
2026-04-16 22:07 27.50480 -142.56132 40233 ft 407 kts 251°
2026-04-16 22:08 27.48172 -142.61931 40226 ft 404 kts 251°
2026-04-16 22:08 27.45874 -142.67703 40221 ft 404 kts 251°
2026-04-16 22:09 27.43566 -142.73489 40219 ft 407 kts 251°
2026-04-16 22:09 27.41245 -142.79297 40224 ft 407 kts 250°
2026-04-16 22:10 27.38928 -142.85087 40223 ft 404 kts 250°
2026-04-16 22:10 27.36620 -142.90848 40219 ft 404 kts 250°
2026-04-16 22:11 27.34307 -142.96614 40216 ft 405 kts 250°
2026-04-16 22:11 27.31984 -143.02396 40211 ft 406 kts 250°
2026-04-16 22:12 27.29659 -143.08172 40216 ft 406 kts 250°
2026-04-16 22:12 27.27330 -143.13952 40217 ft 406 kts 250°
2026-04-16 22:13 27.24998 -143.19730 40215 ft 406 kts 250°
2026-04-16 22:13 27.22680 -143.25465 40220 ft 406 kts 250°
2026-04-16 22:14 27.20349 -143.31225 40215 ft 404 kts 250°
2026-04-16 22:14 27.18032 -143.36942 40196 ft 402 kts 250°
2026-04-16 22:15 27.15707 -143.42673 40213 ft 405 kts 250°
2026-04-16 22:15 27.13365 -143.48433 40217 ft 406 kts 250°
2026-04-16 22:16 27.11017 -143.54201 40217 ft 406 kts 250°
2026-04-16 22:16 27.08670 -143.59959 40217 ft 406 kts 250°
2026-04-16 22:17 27.06319 -143.65720 40213 ft 406 kts 250°
2026-04-16 22:17 27.03964 -143.71479 40194 ft 406 kts 250°
2026-04-16 22:18 27.01603 -143.77251 40201 ft 408 kts 250°
2026-04-16 22:18 26.99233 -143.83030 40203 ft 408 kts 250°
2026-04-16 22:19 26.96862 -143.88807 40204 ft 408 kts 250°
2026-04-16 22:19 26.94491 -143.94574 40201 ft 408 kts 250°
2026-04-16 22:20 26.92115 -144.00346 40212 ft 408 kts 250°
2026-04-16 22:20 26.89743 -144.06098 40190 ft 405 kts 250°
2026-04-16 22:21 26.87392 -144.11797 40197 ft 407 kts 249°
2026-04-16 22:21 26.85007 -144.17563 40197 ft 409 kts 249°
2026-04-16 22:22 26.82615 -144.23342 40201 ft 408 kts 249°
2026-04-16 22:22 26.80233 -144.29088 40205 ft 406 kts 249°
2026-04-16 22:23 26.77857 -144.34812 40200 ft 405 kts 249°
2026-04-16 22:23 26.75482 -144.40524 40177 ft 405 kts 249°
2026-04-16 22:24 26.73100 -144.46249 40212 ft 408 kts 249°
2026-04-16 22:24 26.70697 -144.52011 40195 ft 408 kts 249°
2026-04-16 22:25 26.68301 -144.57749 40194 ft 406 kts 249°
2026-04-16 22:25 26.65914 -144.63463 40192 ft 406 kts 249°
2026-04-16 22:26 26.63523 -144.69174 40185 ft 405 kts 249°
2026-04-16 22:26 26.61131 -144.74881 40186 ft 405 kts 249°
2026-04-16 22:27 26.58737 -144.80584 40200 ft 407 kts 249°
2026-04-16 22:27 26.56340 -144.86288 40196 ft 408 kts 249°
2026-04-16 22:28 26.53924 -144.92026 40205 ft 409 kts 249°
2026-04-16 22:28 26.51504 -144.97768 40202 ft 408 kts 249°
2026-04-16 22:29 26.49086 -145.03498 40192 ft 407 kts 248°
2026-04-16 22:29 26.46675 -145.09203 40196 ft 406 kts 248°
2026-04-16 22:30 26.44268 -145.14892 40181 ft 405 kts 248°
2026-04-16 22:30 26.41859 -145.20576 40190 ft 405 kts 248°
2026-04-16 22:31 26.39445 -145.26265 40194 ft 406 kts 248°
2026-04-16 22:31 26.37029 -145.31950 40196 ft 405 kts 248°
2026-04-16 22:32 26.34621 -145.37609 40194 ft 404 kts 248°
2026-04-16 22:32 26.32215 -145.43258 40184 ft 403 kts 248°
2026-04-16 22:33 26.30212 -145.47952 40182 ft 404 kts 248°
2026-04-16 22:33 26.27374 -145.54598 40191 ft 408 kts 248°
2026-04-16 22:34 26.25347 -145.59335 40190 ft 407 kts 248°
2026-04-16 22:34 26.22916 -145.65013 40188 ft 405 kts 248°
2026-04-16 22:35 26.20487 -145.70677 40189 ft 405 kts 248°
2026-04-16 22:35 26.18055 -145.76340 40189 ft 405 kts 248°
2026-04-16 22:36 26.15624 -145.81996 40189 ft 405 kts 248°
2026-04-16 22:36 26.13194 -145.87641 40173 ft 405 kts 248°
2026-04-16 22:37 26.10748 -145.93313 40171 ft 407 kts 248°
2026-04-16 22:37 26.08314 -145.98952 40173 ft 407 kts 248°
2026-04-16 22:38 26.05857 -146.04638 40178 ft 408 kts 248°
2026-04-16 22:38 26.03399 -146.10315 40176 ft 408 kts 248°
2026-04-16 22:39 26.00938 -146.15995 40178 ft 407 kts 248°
2026-04-16 22:39 25.98478 -146.21671 40166 ft 407 kts 248°
2026-04-16 22:40 25.96007 -146.27371 40177 ft 411 kts 247°
2026-04-16 22:40 25.93523 -146.33090 40179 ft 410 kts 247°
2026-04-16 22:41 25.91052 -146.38770 40179 ft 407 kts 247°
2026-04-16 22:41 25.88590 -146.44425 40168 ft 407 kts 247°
2026-04-16 22:42 25.86124 -146.50080 40169 ft 407 kts 247°
2026-04-16 22:42 25.83657 -146.55732 40170 ft 407 kts 247°
2026-04-16 22:43 25.81180 -146.61398 40163 ft 409 kts 246°
2026-04-16 22:43 25.78692 -146.67081 40166 ft 410 kts 246°
2026-04-16 22:44 25.76197 -146.72774 40172 ft 411 kts 246°
2026-04-16 22:44 25.73714 -146.78432 40167 ft 410 kts 246°
2026-04-16 22:45 25.71225 -146.84096 40168 ft 408 kts 246°
2026-04-16 22:45 25.68737 -146.89750 40164 ft 407 kts 246°
2026-04-16 22:46 25.66253 -146.95389 40144 ft 406 kts 246°
2026-04-16 22:46 25.63760 -147.01040 40160 ft 410 kts 246°
2026-04-16 22:47 25.61250 -147.06722 40159 ft 411 kts 246°
2026-04-16 22:47 25.58734 -147.12410 40171 ft 411 kts 246°
2026-04-16 22:48 25.56220 -147.18087 40168 ft 410 kts 246°
2026-04-16 22:48 25.53715 -147.23736 40165 ft 408 kts 246°
2026-04-16 22:49 25.51211 -147.29377 40160 ft 408 kts 246°
2026-04-16 22:49 25.48716 -147.34988 40154 ft 409 kts 246°
2026-04-16 22:50 25.46176 -147.40694 40164 ft 411 kts 246°
2026-04-16 22:50 25.43651 -147.46358 40165 ft 410 kts 246°
2026-04-16 22:51 25.41149 -147.51964 40163 ft 409 kts 246°
2026-04-16 22:51 25.38636 -147.57588 40159 ft 408 kts 246°
2026-04-16 22:52 25.36121 -147.63210 40157 ft 408 kts 246°
2026-04-16 22:52 25.33596 -147.68847 40163 ft 410 kts 246°
2026-04-16 22:53 25.31061 -147.74499 40154 ft 412 kts 245°
2026-04-16 22:53 25.28507 -147.80184 40160 ft 413 kts 245°
2026-04-16 22:54 25.25951 -147.85869 40159 ft 413 kts 245°
2026-04-16 22:54 25.23393 -147.91549 40161 ft 413 kts 245°
2026-04-16 22:55 25.20837 -147.97219 40157 ft 412 kts 245°
2026-04-16 22:55 25.18283 -148.02877 40154 ft 411 kts 245°
2026-04-16 22:56 25.15734 -148.08516 40128 ft 410 kts 245°
2026-04-16 22:56 25.13178 -148.14166 40150 ft 413 kts 245°
2026-04-16 22:57 25.10602 -148.19851 40150 ft 414 kts 245°
2026-04-16 22:57 25.08042 -148.25493 40152 ft 413 kts 245°
2026-04-16 22:58 25.05472 -148.31151 40150 ft 412 kts 245°
2026-04-16 22:58 25.02903 -148.36798 40147 ft 411 kts 245°
2026-04-16 22:59 25.00338 -148.42431 40147 ft 410 kts 245°
2026-04-16 22:59 24.97774 -148.48055 40145 ft 412 kts 245°
2026-04-16 23:00 24.95194 -148.53707 40149 ft 413 kts 245°
2026-04-16 23:00 24.92613 -148.59352 40144 ft 413 kts 245°
2026-04-16 23:01 24.90026 -148.65006 40148 ft 413 kts 245°
2026-04-16 23:01 24.87433 -148.70665 40149 ft 414 kts 245°
2026-04-16 23:02 24.84837 -148.76322 40147 ft 414 kts 245°
2026-04-16 23:02 24.82234 -148.81989 40155 ft 415 kts 245°
2026-04-16 23:03 24.79626 -148.87660 40147 ft 415 kts 245°
2026-04-16 23:03 24.77013 -148.93333 40146 ft 416 kts 245°
2026-04-16 23:04 24.74404 -148.98992 40146 ft 414 kts 245°
2026-04-16 23:04 24.71800 -149.04633 40139 ft 413 kts 245°
2026-04-16 23:05 24.69201 -149.10255 40137 ft 412 kts 245°
2026-04-16 23:05 24.66623 -149.15826 40134 ft 412 kts 245°
2026-04-16 23:06 24.64027 -149.21430 40137 ft 412 kts 245°
2026-04-16 23:06 24.61423 -149.27041 40129 ft 413 kts 245°
2026-04-16 23:07 24.58802 -149.32686 40135 ft 415 kts 245°
2026-04-16 23:07 24.56175 -149.38334 40141 ft 416 kts 245°
2026-04-16 23:08 24.53545 -149.43983 40140 ft 415 kts 244°
2026-04-16 23:08 24.50914 -149.49627 40140 ft 415 kts 244°
2026-04-16 23:09 24.48283 -149.55264 40134 ft 414 kts 244°
2026-04-16 23:09 24.45652 -149.60893 40138 ft 414 kts 245°
2026-04-16 23:10 24.43024 -149.66511 40127 ft 414 kts 244°
2026-04-16 23:10 24.40384 -149.72146 40129 ft 416 kts 244°
2026-04-16 23:11 24.37731 -149.77803 40124 ft 418 kts 244°
2026-04-16 23:11 24.35088 -149.83431 40127 ft 417 kts 244°
2026-04-16 23:12 24.32438 -149.89068 40134 ft 415 kts 244°
2026-04-16 23:12 24.29794 -149.94686 40129 ft 414 kts 244°
2026-04-16 23:13 24.27157 -150.00280 40130 ft 413 kts 244°
2026-04-16 23:13 24.24518 -150.05876 40117 ft 414 kts 244°
2026-04-16 23:14 24.21858 -150.11505 40123 ft 417 kts 244°
2026-04-16 23:14 24.19186 -150.17155 40122 ft 418 kts 244°
2026-04-16 23:15 24.15188 -150.25596 40135 ft 415 kts 244°
2026-04-16 23:16 24.12528 -150.31204 40123 ft 415 kts 244°
2026-04-16 23:16 24.09867 -150.36806 40129 ft 415 kts 244°
2026-04-16 23:17 24.07205 -150.42404 40122 ft 414 kts 244°
2026-04-16 23:17 24.04542 -150.47999 40120 ft 416 kts 244°
2026-04-16 23:18 24.01864 -150.53617 40117 ft 417 kts 244°
2026-04-16 23:18 23.99181 -150.59240 40123 ft 417 kts 244°
2026-04-16 23:19 23.96498 -150.64857 40125 ft 417 kts 244°
2026-04-16 23:19 23.93807 -150.70482 40124 ft 417 kts 244°
2026-04-16 23:20 23.91113 -150.76107 40124 ft 418 kts 244°
2026-04-16 23:20 23.88425 -150.81714 40116 ft 415 kts 244°
2026-04-16 23:21 23.85762 -150.87262 40112 ft 415 kts 244°
2026-04-16 23:21 23.83069 -150.92867 40119 ft 417 kts 244°
2026-04-16 23:22 23.80370 -150.98477 40107 ft 418 kts 243°
2026-04-16 23:22 23.77664 -151.04095 40108 ft 418 kts 243°
2026-04-16 23:23 23.74958 -151.09706 40119 ft 417 kts 243°
2026-04-16 23:23 23.72260 -151.15294 40116 ft 416 kts 243°
2026-04-16 23:24 23.69563 -151.20873 40111 ft 415 kts 243°
2026-04-16 23:24 23.67308 -151.25533 40107 ft 414 kts 243°
2026-04-16 23:25 23.64607 -151.31111 40110 ft 418 kts 243°
2026-04-16 23:25 23.61884 -151.36725 40109 ft 418 kts 243°
2026-04-16 23:26 23.59172 -151.42311 40121 ft 417 kts 243°
2026-04-16 23:26 23.56460 -151.47892 40119 ft 416 kts 243°
2026-04-16 23:27 23.53766 -151.53428 40113 ft 416 kts 243°
2026-04-16 23:27 23.51051 -151.59000 40114 ft 416 kts 243°
2026-04-16 23:28 23.48335 -151.64570 40108 ft 416 kts 243°
2026-04-16 23:28 23.45615 -151.70140 40117 ft 417 kts 243°
2026-04-16 23:29 23.42881 -151.75732 40118 ft 419 kts 243°
2026-04-16 23:29 23.40144 -151.81326 40117 ft 419 kts 243°
2026-04-16 23:30 23.37399 -151.86928 40117 ft 419 kts 243°
2026-04-16 23:30 23.34658 -151.92517 40127 ft 419 kts 243°
2026-04-16 23:31 23.31916 -151.98099 40107 ft 417 kts 243°
2026-04-16 23:31 23.29203 -152.03618 40109 ft 416 kts 243°
2026-04-16 23:32 23.26472 -152.09168 40082 ft 416 kts 242°
2026-04-16 23:32 23.23724 -152.14744 40113 ft 420 kts 242°
2026-04-16 23:33 23.20961 -152.20346 40115 ft 420 kts 242°
2026-04-16 23:33 23.18198 -152.25941 40110 ft 419 kts 242°
2026-04-16 23:34 23.15443 -152.31513 40099 ft 418 kts 242°
2026-04-16 23:34 23.12691 -152.37072 40096 ft 417 kts 242°
2026-04-16 23:35 23.09942 -152.42620 40099 ft 417 kts 242°
2026-04-16 23:35 23.07188 -152.48172 40100 ft 417 kts 242°
2026-04-16 23:36 23.04429 -152.53727 40116 ft 419 kts 242°
2026-04-16 23:36 23.01655 -152.59305 40114 ft 420 kts 242°
2026-04-16 23:37 22.98879 -152.64833 40116 ft 420 kts 242°
2026-04-16 23:37 22.96090 -152.70397 40114 ft 420 kts 242°
2026-04-16 23:38 22.93293 -152.75966 40109 ft 420 kts 242°
2026-04-16 23:38 22.90496 -152.81528 40108 ft 419 kts 242°
2026-04-16 23:39 22.87706 -152.87072 40096 ft 418 kts 242°
2026-04-16 23:39 22.84929 -152.92582 40094 ft 416 kts 242°
2026-04-16 23:40 22.82151 -152.98089 40094 ft 417 kts 242°
2026-04-16 23:40 22.79361 -153.03614 40098 ft 419 kts 242°
2026-04-16 23:41 22.76559 -153.09158 40110 ft 420 kts 242°
2026-04-16 23:41 22.73751 -153.14706 40092 ft 420 kts 242°
2026-04-16 23:42 22.70948 -153.20237 40102 ft 418 kts 242°
2026-04-16 23:42 22.68172 -153.25712 40092 ft 417 kts 242°
2026-04-16 23:43 22.65376 -153.31219 40098 ft 417 kts 242°
2026-04-16 23:43 22.62580 -153.36718 40103 ft 418 kts 242°
2026-04-16 23:44 22.59768 -153.42245 40111 ft 420 kts 242°
2026-04-16 23:44 22.56949 -153.47779 40110 ft 420 kts 242°
2026-04-16 23:45 22.54130 -153.53308 40095 ft 420 kts 242°
2026-04-16 23:45 22.51313 -153.58825 40095 ft 419 kts 242°
2026-04-16 23:46 22.48495 -153.64340 40087 ft 419 kts 242°
2026-04-16 23:46 22.45678 -153.69847 40088 ft 418 kts 241°
2026-04-16 23:47 22.42862 -153.75345 40093 ft 418 kts 241°
2026-04-16 23:47 22.40046 -153.80839 40101 ft 420 kts 241°
2026-04-16 23:48 22.37210 -153.86364 40102 ft 421 kts 241°
2026-04-16 23:48 22.34204 -153.91801 40098 ft 421 kts 239°
2026-04-16 23:49 22.31133 -153.97191 40103 ft 421 kts 239°
2026-04-16 23:49 22.28082 -154.02532 40100 ft 421 kts 239°
2026-04-16 23:50 22.25015 -154.07900 40096 ft 420 kts 239°
2026-04-16 23:50 22.21946 -154.13263 40088 ft 419 kts 239°
2026-04-16 23:51 22.18883 -154.18613 40097 ft 419 kts 239°
2026-04-16 23:51 22.15809 -154.23976 40097 ft 422 kts 239°
2026-04-16 23:52 22.12718 -154.29362 40098 ft 422 kts 239°
2026-04-16 23:52 22.09623 -154.34751 40100 ft 423 kts 239°
2026-04-16 23:53 22.06522 -154.40143 39999 ft 423 kts 239°
2026-04-16 23:53 22.04972 -154.42836 39877 ft 422 kts 239°
2026-04-16 23:53 22.03434 -154.45509 39730 ft 420 kts 238°
2026-04-16 23:53 22.01895 -154.48181 39476 ft 418 kts 238°
2026-04-16 23:54 22.00369 -154.50829 38960 ft 415 kts 238°
2026-04-16 23:54 21.98847 -154.53468 38360 ft 413 kts 238°
2026-04-16 23:54 21.97330 -154.56098 37572 ft 414 kts 238°
2026-04-16 23:54 21.95805 -154.58741 36684 ft 417 kts 237°
2026-04-16 23:55 21.94363 -154.61469 35767 ft 421 kts 240°
2026-04-16 23:55 21.92969 -154.64252 34869 ft 424 kts 239°
2026-04-16 23:55 21.91547 -154.67058 33975 ft 428 kts 239°
2026-04-16 23:55 21.90123 -154.69876 33078 ft 428 kts 239°
2026-04-16 23:56 21.88727 -154.72658 32281 ft 428 kts 240°
2026-04-16 23:56 21.87314 -154.75469 31621 ft 425 kts 240°
2026-04-16 23:56 21.85881 -154.78309 31037 ft 430 kts 240°
2026-04-16 23:56 21.84437 -154.81166 30490 ft 437 kts 240°
2026-04-16 23:57 21.83009 -154.83999 29910 ft 436 kts 241°
2026-04-16 23:57 21.81563 -154.86866 29275 ft 435 kts 241°
2026-04-16 23:57 21.80125 -154.89713 28756 ft 431 kts 241°
2026-04-16 23:57 21.78697 -154.92537 28254 ft 428 kts 241°
2026-04-16 23:58 21.77275 -154.95348 27755 ft 426 kts 241°
2026-04-16 23:58 21.75844 -154.98179 27269 ft 425 kts 240°
2026-04-16 23:58 21.74453 -155.00926 26791 ft 423 kts 240°
2026-04-16 23:58 21.73045 -155.03701 26296 ft 422 kts 241°
2026-04-16 23:59 21.71643 -155.06469 25818 ft 421 kts 241°
2026-04-16 23:59 21.70246 -155.09228 25373 ft 419 kts 242°
2026-04-16 23:59 21.68852 -155.11975 24912 ft 418 kts 242°
2026-04-16 23:59 21.67463 -155.14710 24464 ft 416 kts 242°
2026-04-17 00:00 21.66081 -155.17432 24021 ft 414 kts 242°
2026-04-17 00:00 21.64703 -155.20144 23568 ft 413 kts 242°
2026-04-17 00:00 21.63333 -155.22841 23062 ft 410 kts 242°
2026-04-17 00:00 21.61970 -155.25521 22530 ft 407 kts 242°
2026-04-17 00:01 21.60618 -155.28176 22023 ft 403 kts 242°
2026-04-17 00:01 21.59277 -155.30811 21590 ft 399 kts 242°
2026-04-17 00:01 21.57950 -155.33417 21218 ft 396 kts 242°
2026-04-17 00:01 21.56631 -155.36005 20853 ft 395 kts 242°
2026-04-17 00:02 21.55313 -155.38590 20491 ft 394 kts 242°
2026-04-17 00:02 21.53998 -155.41166 20134 ft 393 kts 242°
2026-04-17 00:02 21.52688 -155.43733 19785 ft 391 kts 242°
2026-04-17 00:02 21.51383 -155.46289 19428 ft 389 kts 242°
2026-04-17 00:03 21.50087 -155.48828 19082 ft 387 kts 242°
2026-04-17 00:03 21.48794 -155.51357 18745 ft 385 kts 242°
2026-04-17 00:03 21.47507 -155.53873 18408 ft 383 kts 242°
2026-04-17 00:03 21.46226 -155.56378 18026 ft 382 kts 242°
2026-04-17 00:04 21.44949 -155.58872 17648 ft 380 kts 242°
2026-04-17 00:04 21.43677 -155.61358 17275 ft 379 kts 242°
2026-04-17 00:04 21.42407 -155.63837 16898 ft 379 kts 242°
2026-04-17 00:04 21.41138 -155.66312 16518 ft 378 kts 242°
2026-04-17 00:05 21.39875 -155.68775 16151 ft 377 kts 242°
2026-04-17 00:05 21.38613 -155.71236 15788 ft 376 kts 242°
2026-04-17 00:05 21.37354 -155.73689 15418 ft 372 kts 242°
2026-04-17 00:05 21.36128 -155.76075 15061 ft 358 kts 243°
2026-04-17 00:06 21.34945 -155.78377 14687 ft 346 kts 243°
2026-04-17 00:06 21.33800 -155.80605 14329 ft 336 kts 243°
2026-04-17 00:06 21.32689 -155.82768 13961 ft 326 kts 243°
2026-04-17 00:06 21.31607 -155.84873 13562 ft 318 kts 243°
2026-04-17 00:07 21.30566 -155.86896 13160 ft 310 kts 243°
2026-04-17 00:07 21.29534 -155.88901 12752 ft 304 kts 243°
2026-04-17 00:07 21.28524 -155.90862 12351 ft 297 kts 243°
2026-04-17 00:07 21.27535 -155.92785 11960 ft 294 kts 242°
2026-04-17 00:08 21.26551 -155.94694 11581 ft 291 kts 242°
2026-04-17 00:08 21.25574 -155.96590 11209 ft 289 kts 242°
2026-04-17 00:08 21.24602 -155.98474 10848 ft 287 kts 242°
2026-04-17 00:08 21.23635 -156.00350 10491 ft 287 kts 242°
2026-04-17 00:09 21.22663 -156.02234 10190 ft 287 kts 242°
2026-04-17 00:09 21.21702 -156.04094 9953 ft 285 kts 242°
2026-04-17 00:09 21.20740 -156.05959 9695 ft 287 kts 242°
2026-04-17 00:09 21.19772 -156.07835 9446 ft 288 kts 241°
2026-04-17 00:10 21.18800 -156.09714 9195 ft 287 kts 242°
2026-04-17 00:10 21.17829 -156.11583 8944 ft 286 kts 239°
2026-04-17 00:10 21.16501 -156.13158 8688 ft 288 kts 216°
2026-04-17 00:10 21.14876 -156.14420 8457 ft 289 kts 216°
2026-04-17 00:11 21.13243 -156.15676 8211 ft 289 kts 216°
2026-04-17 00:11 21.11609 -156.16926 7965 ft 288 kts 215°
2026-04-17 00:11 21.09983 -156.18176 7775 ft 287 kts 215°
2026-04-17 00:11 21.08377 -156.19413 7648 ft 283 kts 215°
2026-04-17 00:12 21.06816 -156.20613 7515 ft 269 kts 215°
2026-04-17 00:12 21.05331 -156.21756 7363 ft 258 kts 214°
2026-04-17 00:12 21.03880 -156.22869 7262 ft 252 kts 215°
2026-04-17 00:12 21.02457 -156.23963 7165 ft 253 kts 214°
2026-04-17 00:13 21.01022 -156.25059 7071 ft 254 kts 214°
2026-04-17 00:13 21.00064 -156.25785 7013 ft 254 kts 213°
2026-04-17 00:13 20.98130 -156.27242 6875 ft 253 kts 214°
2026-04-17 00:13 20.96696 -156.28331 6769 ft 254 kts 214°
2026-04-17 00:14 20.95744 -156.29054 6696 ft 253 kts 213°
2026-04-17 00:14 20.94309 -156.30140 6580 ft 253 kts 213°
2026-04-17 00:14 20.92874 -156.31227 6469 ft 252 kts 213°
2026-04-17 00:14 20.91443 -156.32310 6253 ft 252 kts 213°
2026-04-17 00:15 20.90009 -156.33394 6029 ft 252 kts 214°
2026-04-17 00:15 20.88589 -156.34468 5852 ft 249 kts 213°
2026-04-17 00:15 20.87169 -156.35519 5608 ft 248 kts 213°
2026-04-17 00:15 20.85746 -156.36563 5409 ft 248 kts 213°
2026-04-17 00:16 20.84329 -156.37610 5240 ft 246 kts 213°
2026-04-17 00:16 20.82930 -156.38648 5059 ft 244 kts 213°
2026-04-17 00:16 20.81542 -156.39673 4989 ft 241 kts 213°
2026-04-17 00:16 20.80154 -156.40697 4993 ft 243 kts 213°
2026-04-17 00:17 20.78759 -156.41729 4985 ft 243 kts 213°
2026-04-17 00:17 20.77363 -156.42762 4993 ft 244 kts 213°
2026-04-17 00:17 20.75961 -156.43797 4995 ft 245 kts 213°
2026-04-17 00:17 20.74561 -156.44838 4992 ft 250 kts 213°
2026-04-17 00:18 20.73116 -156.45916 4993 ft 255 kts 213°
2026-04-17 00:18 20.71665 -156.46995 4998 ft 254 kts 213°
2026-04-17 00:18 20.70217 -156.48070 4998 ft 252 kts 213°
2026-04-17 00:18 20.68777 -156.49140 4991 ft 251 kts 213°
2026-04-17 00:19 20.67522 -156.50427 4854 ft 254 kts 238°
2026-04-17 00:19 20.67035 -156.52229 4640 ft 254 kts 270°
2026-04-17 00:19 20.67440 -156.54004 4628 ft 242 kts 300°
2026-04-17 00:19 20.68361 -156.55449 4586 ft 230 kts 313°
2026-04-17 00:20 20.69680 -156.56347 4262 ft 226 kts 345°
2026-04-17 00:20 20.71191 -156.56380 4090 ft 215 kts 18°
2026-04-17 00:20 20.72538 -156.55782 3862 ft 206 kts 32°
2026-04-17 00:20 20.73720 -156.54963 3613 ft 199 kts 36°
2026-04-17 00:21 20.74836 -156.54137 3360 ft 192 kts 36°
2026-04-17 00:21 20.75913 -156.53334 3111 ft 186 kts 36°
2026-04-17 00:21 20.76969 -156.52543 2861 ft 189 kts 35°
2026-04-17 00:21 20.78050 -156.51734 2622 ft 188 kts 34°
2026-04-17 00:22 20.80093 -156.50207 2137 ft 166 kts 34°
2026-04-17 00:22 20.80982 -156.49543 1947 ft 150 kts 34°
2026-04-17 00:22 20.81820 -156.48923 1750 ft 145 kts 34°
2026-04-17 00:23 20.82659 -156.48299 1563 ft 149 kts 34°
2026-04-17 00:23 20.83509 -156.47661 1348 ft 150 kts 33°
2026-04-17 00:23 20.84256 -156.47113 1154 ft 143 kts 33°
2026-04-17 00:23 20.84815 -156.46709 1001 ft 143 kts 34°
2026-04-17 00:24 20.85629 -156.46091 814 ft 144 kts 33°
2026-04-17 00:24 20.86426 -156.45488 669 ft 139 kts 34°
2026-04-17 00:24 20.87221 -156.44889 482 ft 142 kts 33°
2026-04-17 00:24 20.88036 -156.44286 293 ft 143 kts 33°
2026-04-17 00:25 20.88847 -156.43684 103 ft 141 kts 34°
2026-04-17 00:25 20.89565 -156.43149 48 ft 102 kts 35°
2026-04-17 00:25 20.90023 -156.42806 47 ft 63 kts 36°
2026-04-17 00:25 20.90308 -156.42597 50 ft 38 kts 34°
2026-04-17 00:26 20.90458 -156.42498 49 ft 12 kts
2026-04-17 00:26 20.90472 -156.42505 50 ft 0 kts 329°
2026-04-17 00:26 20.90485 -156.42569 51 ft 15 kts 259°
2026-04-17 00:27 20.90458 -156.42633 50 ft 6 kts 239°
2026-04-17 00:27 20.90422 -156.42671 50 ft 9 kts 217°
2026-04-17 00:27 20.90367 -156.42712 48 ft 12 kts 215°
2026-04-17 00:27 20.90283 -156.42775 48 ft 18 kts 216°
2026-04-17 00:28 20.90169 -156.42861 49 ft 23 kts 215°
2026-04-17 00:28 20.90049 -156.42948 49 ft 15 kts 213°
2026-04-17 00:28 20.89979 -156.43000 49 ft 12 kts 215°
2026-04-17 00:28 20.89913 -156.43051 47 ft 12 kts 216°
2026-04-17 00:29 20.89845 -156.43101 50 ft 12 kts 215°
2026-04-17 00:29 20.89774 -156.43154 50 ft 13 kts 215°
2026-04-17 00:29 20.89700 -156.43208 51 ft 13 kts 214°
2026-04-17 00:29 20.89624 -156.43266 51 ft 14 kts 216°
2026-04-17 00:30 20.89584 -156.43329 47 ft 7 kts 257°
2026-04-17 00:30 20.89586 -156.43357 45 ft 7 kts 282°
2026-04-17 00:30 20.89616 -156.43413 50 ft 2 kts 304°
2026-04-17 00:30 20.89617 -156.43414 50 ft 1 kts 305°
2026-04-17 00:31 20.89621 -156.43421 49 ft 1 kts 306°
2026-04-17 00:31 20.89623 -156.43423 49 ft 0 kts 306°